Wind_Speed
7 7 6 6 6 7 7 7 6 7 8 7 7 8 9 10 12 12 12 12 11 10 10 9 9 8 8 8 7 7 6 6 7 7 7 8 9 11 12 12 12 12 12 12
6 7 6 6 7 7 6 6 6 7 7 7 8 8 9 10 11 11 11 11 10 10 9 9 8 8 8 7 6 6 5 6 6 7 7 8 9 10 11 10 11 11 11 11
6 6 6 7 8 7 6 6 6 6 7 7 7 8 9 11 12 12 11 11 11 9 9 8 8 8 8 8 7 6 6 6 6 6 7 7 8 9 10 9 10 10 10 12
6 6 6 7 8 7 6 5 5 6 7 7 8 8 9 10 10 10 10 10 10 9 9 8 8 8 7 7 7 6 6 6 6 6 7 8 9 9 10 10 10 10 11 12
7 7 6 7 8 7 6 5 6 6 7 7 7 8 8 9 9 10 10 10 10 10 9 8 7 8 7 7 7 7 7 7 7 7 7 8 8 9 9 10 10 11 11 13
8 8 8 8 9 8 7 5 6 6 6 7 8 7 8 9 9 9 9 10 10 10 9 8 8 8 8 7 6 6 6 7 7 7 7 7 8 8 9 9 10 10 11 13
8 8 8 9 9 8 7 5 5 6 7 8 8 8 8 8 8 9 9 10 10 10 9 8 8 8 8 7 6 6 7 7 6 6 6 7 7 8 8 9 10 11 12 13
8 8 7 8 9 7 6 5 6 7 7 8 8 7 8 8 9 9 9 9 9 9 8 8 7 7 7 7 6 6 6 6 6 6 7 7 8 8 8 9 10 12 13 14
8 7 7 8 8 7 7 7 7 8 8 8 8 7 8 8 9 9 9 8 8 9 8 8 7 7 7 7 7 7 6 6 6 6 7 8 8 8 9 10 11 12 14 15
8 8 8 8 8 7 7 7 7 8 8 8 8 7 8 8 8 8 8 8 8 8 9 9 8 7 7 7 7 7 6 7 7 7 8 8 9 9 9 10 11 13 14 16
9 9 9 9 9 9 8 9 8 8 8 8 8 8 8 8 8 8 8 8 8 9 8 8 8 8 7 8 8 7 7 7 7 7 8 8 9 9 10 11 12 13 15 16
9 9 9 10 10 10 10 10 10 9 9 9 9 8 8 8 8 7 7 8 8 8 8 8 8 8 8 8 8 7 7 7 7 8 8 9 9 10 11 12 13 15 16 18
11 10 10 10 11 11 11 11 10 10 9 9 9 9 8 8 8 8 8 8 8 8 8 8 8 8 8 8 8 8 8 8 8 9 9 9 10 11 12 13 14 15 16 18
12 12 11 12 12 12 12 11 11 10 10 10 10 9 9 8 8 8 8 8 8 8 8 8 8 8 9 9 8 8 8 8 9 9 10 10 11 12 13 13 15 16 17 18
13 13 13 13 13 13 13 12 11 11 11 10 10 10 10 9 9 9 9 9 9 9 9 8 8 8 9 9 8 8 9 9 10 10 11 11 12 13 14 15 15 16 18 19
14 13 13 13 13 13 13 13 12 12 11 12 11 11 11 11 10 10 10 10 10 9 9 9 9 9 9 9 9 9 9 10 10 11 11 12 13 14 15 16 17 17 18 20
15 14 14 14 14 14 14 13 13 12 12 12 13 12 12 12 11 10 10 10 10 10 10 10 10 9 9 9 9 9 10 10 11 12 12 13 14 15 16 17 18 18 19 21
17 16 15 15 15 15 14 14 13 13 13 13 13 13 13 12 12 11 11 11 11 11 11 11 10 10 10 10 9 10 11 11 12 13 13 14 15 15 16 17 19 19 20 21
17 16 16 16 16 15 15 15 15 14 14 14 14 14 14 13 13 12 12 12 12 12 12 11 11 11 11 11 11 11 12 13 13 14 14 15 15 16 17 18 19 20 20 21
18 18 18 18 17 17 16 16 16 15 15 15 15 15 14 14 14 13 13 13 13 13 13 12 12 12 12 12 12 12 12 13 14 15 15 16 16 16 17 18 20 21 22 22
21 20 20 19 19 18 18 17 17 16 16 16 16 16 16 16 15 15 14 14 14 14 13 13 13 13 13 13 13 13 13 14 15 16 16 16 17 17 18 18 20 21 22 23
23 22 22 21 21 20 19 19 18 17 17 17 17 18 17 17 17 16 16 15 15 15 15 14 14 14 14 14 14 14 14 15 16 16 16 17 18 18 18 19 20 21 22 23
24 23 23 22 22 21 21 20 19 19 18 18 18 18 18 18 17 17 16 16 16 16 16 15 15 15 14 14 15 15 16 16 16 17 17 17 17 18 19 19 20 20 22 23
25 24 24 23 23 22 21 20 20 19 19 19 18 18 18 18 18 18 18 17 17 17 16 16 16 15 15 15 16 16 17 17 17 17 17 17 17 18 19 19 19 20 21 22
26 25 24 24 24 23 21 21 20 20 20 19 19 18 18 18 18 19 18 18 18 18 17 17 17 16 16 16 17 17 17 17 17 17 17 17 18 18 19 19 20 20 20 21
26 25 25 25 24 24 23 22 21 21 21 20 20 19 19 19 19 19 19 19 19 19 18 18 17 17 17 17 17 17 17 17 17 17 18 18 17 18 18 19 19 19 19 20
27 26 26 25 25 24 24 23 23 22 22 21 21 20 20 20 20 20 20 20 20 19 19 19 18 18 18 18 18 18 17 17 17 17 17 17 17 17 18 19 19 19 20 20
Wind_Direction
328 337 346 346 339 333 335 333 332 324 318 326 321 317 320 324 326 327 328 329 330 328 325 320 315 312 311 308 309 306 296 295 293 297 294 295 296 297 299 295 294 298 304 307
328 333 339 340 336 333 335 334 336 338 336 330 327 322 321 327 330 331 332 337 339 338 334 328 322 324 325 322 320 319 313 303 300 305 301 298 301 306 307 302 301 304 305 308
328 329 327 337 339 337 331 329 335 338 341 337 329 326 328 336 337 336 337 341 344 341 336 337 331 329 331 328 325 328 327 318 307 306 307 308 309 312 313 311 311 311 312 314
327 328 332 334 337 338 332 329 333 334 336 341 339 335 334 338 340 343 345 347 346 343 341 342 341 337 335 334 331 326 324 325 317 309 310 310 309 311 315 318 320 319 319 320
325 327 330 332 336 341 337 321 318 323 329 337 339 336 336 338 340 345 349 351 350 348 348 353 355 351 343 335 333 333 330 326 324 323 318 312 313 316 320 321 323 322 323 325
317 316 324 333 335 333 328 322 324 328 337 344 341 337 337 342 344 348 352 353 353 354 357 359 2 358 351 343 335 332 330 329 330 329 326 322 322 325 327 326 328 330 330 331
326 325 328 334 333 328 325 328 323 330 336 334 332 336 342 349 350 352 351 352 356 360 1 2 3 359 357 350 345 339 334 332 332 333 334 336 335 333 334 336 336 335 334 333
327 329 329 334 337 331 332 325 322 323 324 326 328 335 342 350 354 357 356 354 359 4 6 7 7 5 3 0 358 353 349 345 341 345 341 336 339 339 338 339 340 338 337 336
316 322 321 325 331 331 330 326 319 319 319 321 326 332 340 346 350 354 357 357 359 5 9 6 5 10 11 7 3 358 355 355 350 347 346 344 344 343 341 340 339 340 339 338
303 306 310 314 317 316 319 319 318 321 324 322 329 334 339 343 346 351 356 358 360 1 1 3 3 2 2 2 2 0 358 355 353 353 353 351 349 349 346 342 341 340 337 337
297 300 300 305 306 304 306 308 308 312 316 320 324 325 328 334 340 340 344 346 347 349 351 355 1 5 5 0 359 1 359 354 354 355 353 350 343 342 343 343 342 341 341 339
297 298 294 297 301 299 298 297 298 302 307 310 314 318 317 322 326 331 335 337 337 337 342 346 348 350 351 350 350 352 354 354 354 351 349 347 343 339 337 337 339 339 338 338
292 293 295 298 300 300 295 292 295 296 297 300 307 314 316 315 316 320 326 330 332 331 334 338 341 342 343 344 341 340 342 344 345 343 341 342 341 339 336 335 337 337 337 338
286 287 290 293 296 298 299 295 293 293 293 296 300 304 309 311 312 315 318 320 321 322 323 325 331 336 338 338 337 334 335 336 337 336 334 333 335 335 334 332 333 334 337 338
283 284 288 290 292 294 296 294 292 290 290 293 294 297 301 304 306 308 312 315 315 317 318 320 324 326 330 332 333 333 332 334 334 332 331 329 331 333 334 333 333 335 336 338
279 283 286 288 289 291 292 292 291 291 290 290 289 290 294 299 302 301 305 310 311 311 315 319 319 320 323 326 328 329 330 332 331 330 330 328 329 331 333 334 334 335 337 337
275 280 283 285 288 290 290 290 289 290 290 288 285 286 289 293 295 298 302 306 307 309 311 313 316 319 319 320 322 324 325 326 327 328 328 328 329 330 331 332 333 333 333 334
274 277 279 282 285 287 289 288 286 287 288 287 284 284 285 287 289 293 295 300 302 305 306 308 311 313 314 314 314 317 322 325 326 327 327 328 328 330 331 332 333 332 330 330
270 272 276 279 282 285 287 286 284 284 284 283 282 283 285 286 286 286 289 292 294 298 301 303 305 306 306 306 309 313 316 321 322 324 325 327 327 327 330 332 333 334 333 333
267 270 273 275 278 281 283 283 282 282 281 280 280 280 282 284 286 286 285 286 288 290 293 295 298 300 301 300 301 304 310 315 318 320 321 323 324 324 327 330 332 333 334 334
264 267 270 273 276 278 280 281 281 280 279 279 278 278 281 282 284 285 284 284 286 288 289 290 293 296 297 297 297 300 305 310 314 318 319 320 321 322 324 327 330 332 333 334
262 265 268 270 273 276 278 278 276 276 277 277 277 276 277 279 281 282 282 283 285 287 287 288 290 292 294 295 298 301 304 308 311 313 316 318 319 321 323 325 327 330 332 334
262 264 266 268 270 273 274 274 272 272 274 276 277 277 277 277 278 279 280 281 283 285 285 285 287 289 290 293 297 301 304 306 308 311 313 315 317 319 322 323 325 329 330 332
262 263 265 265 267 269 270 270 269 270 272 274 276 277 277 277 277 279 281 282 282 282 281 283 285 287 288 291 295 299 302 304 306 308 311 313 314 318 320 322 324 327 330 332
260 261 262 263 265 266 267 267 268 268 270 272 274 275 276 277 278 278 280 281 280 278 278 280 282 284 286 289 293 297 301 303 304 306 309 311 312 315 317 319 322 325 329 334
256 258 260 261 263 264 264 265 266 267 269 271 273 275 276 277 277 277 278 280 279 278 278 278 280 282 284 288 293 297 300 302 304 305 308 310 312 314 317 320 322 324 328 331
255 257 259 261 263 263 263 263 264 264 266 269 272 273 274 275 275 274 276 278 280 278 276 276 277 279 282 286 290 294 297 300 303 305 308 310 312 315 318 320 323 326 327 329
Height
5799 5798 5796 5796 5795 5793 5792 5791 5790 5789 5788 5787 5786 5785 5783 5781 5779 5777 5775 5773 5770 5768 5766 5764 5763 5762 5760 5759 5758 5757 5757 5756 5756 5756 5756 5756 5755 5755 5754 5753 5752 5750 5749 5748
5799 5798 5797 5796 5795 5793 5792 5791 5790 5789 5788 5786 5785 5784 5782 5780 5778 5776 5774 5771 5769 5767 5765 5763 5762 5761 5759 5758 5757 5756 5755 5755 5754 5754 5754 5753 5753 5752 5751 5750 5749 5748 5747 5745
5799 5797 5797 5796 5795 5794 5792 5791 5790 5789 5789 5786 5785 5783 5781 5779 5777 5775 5773 5771 5768 5766 5764 5763 5761 5759 5758 5757 5756 5755 5754 5754 5753 5753 5753 5752 5751 5750 5749 5748 5747 5746 5744 5743
5798 5798 5797 5798 5794 5793 5792 5791 5790 5789 5787 5786 5785 5783 5781 5779 5776 5774 5772 5770 5768 5766 5764 5762 5760 5759 5757 5756 5756 5755 5754 5753 5752 5752 5751 5751 5750 5749 5748 5746 5745 5744 5742 5741
5798 5797 5797 5796 5794 5792 5792 5791 5790 5789 5787 5785 5784 5783 5781 5779 5776 5774 5772 5770 5768 5765 5763 5762 5760 5759 5757 5756 5755 5754 5753 5752 5751 5751 5750 5749 5749 5748 5746 5745 5743 5742 5741 5739
5797 5796 5795 5796 5793 5792 5792 5790 5789 5788 5786 5785 5784 5782 5781 5778 5776 5774 5771 5769 5767 5765 5763 5762 5760 5759 5758 5756 5755 5754 5753 5752 5751 5750 5749 5748 5747 5746 5745 5744 5742 5741 5739 5737
5796 5795 5795 5794 5792 5791 5791 5791 5789 5787 5786 5785 5783 5782 5780 5778 5776 5773 5771 5769 5767 5765 5764 5762 5761 5759 5758 5757 5755 5754 5753 5752 5751 5750 5749 5748 5746 5745 5744 5743 5741 5739 5737 5735
5796 5795 5796 5793 5791 5791 5790 5788 5787 5786 5785 5784 5783 5781 5779 5778 5776 5774 5772 5770 5768 5766 5764 5763 5761 5760 5758 5757 5756 5755 5754 5753 5751 5750 5749 5748 5746 5745 5743 5742 5740 5738 5735 5733
5795 5796 5793 5792 5791 5790 5788 5788 5787 5785 5784 5783 5782 5780 5779 5777 5776 5774 5772 5770 5768 5767 5765 5764 5762 5761 5759 5758 5756 5755 5754 5753 5752 5750 5749 5747 5746 5744 5743 5741 5739 5737 5734 5731
5793 5793 5792 5791 5790 5789 5788 5787 5786 5784 5783 5782 5781 5779 5778 5777 5775 5773 5772 5770 5769 5767 5765 5764 5762 5761 5760 5758 5757 5756 5754 5753 5752 5750 5749 5747 5745 5744 5742 5741 5738 5736 5733 5730
5791 5791 5790 5790 5788 5787 5786 5785 5784 5783 5782 5781 5780 5778 5777 5776 5774 5773 5771 5770 5768 5767 5765 5764 5763 5761 5760 5759 5757 5756 5755 5753 5752 5750 5748 5747 5745 5743 5742 5740 5737 5735 5732 5728
5790 5789 5788 5788 5786 5785 5784 5784 5783 5782 5781 5780 5778 5777 5776 5775 5774 5772 5771 5769 5768 5767 5765 5764 5763 5761 5760 5758 5757 5756 5755 5753 5751 5749 5748 5746 5744 5743 5741 5739 5736 5733 5730 5727
5787 5786 5786 5785 5784 5783 5782 5781 5780 5780 5779 5778 5777 5776 5775 5774 5772 5771 5770 5769 5767 5766 5764 5763 5762 5761 5759 5758 5756 5755 5754 5752 5750 5749 5747 5745 5743 5742 5739 5737 5734 5732 5729 5725
5784 5784 5783 5783 5782 5781 5780 5779 5778 5777 5777 5776 5775 5774 5773 5772 5771 5770 5769 5767 5766 5765 5763 5762 5761 5759 5758 5757 5755 5754 5753 5751 5749 5748 5746 5744 5742 5740 5738 5735 5733 5730 5727 5723
5781 5780 5780 5779 5779 5778 5777 5776 5775 5775 5774 5773 5773 5772 5771 5770 5769 5768 5767 5765 5764 5763 5762 5760 5759 5758 5757 5755 5754 5752 5751 5750 5748 5746 5744 5743 5741 5738 5736 5733 5731 5727 5724 5720
5777 5776 5776 5776 5775 5775 5774 5773 5772 5772 5771 5770 5770 5769 5768 5767 5766 5765 5764 5763 5762 5761 5760 5759 5758 5756 5755 5753 5752 5751 5749 5748 5746 5745 5743 5741 5739 5737 5734 5731 5728 5725 5721 5718
5773 5773 5773 5772 5772 5771 5770 5770 5769 5768 5768 5767 5766 5766 5765 5764 5763 5762 5761 5760 5759 5759 5758 5757 5755 5754 5753 5751 5750 5749 5748 5746 5745 5743 5741 5739 5737 5734 5732 5729 5726 5722 5719 5715
5768 5769 5768 5768 5768 5767 5767 5766 5766 5765 5764 5764 5763 5762 5762 5761 5760 5760 5759 5758 5757 5756 5755 5754 5753 5752 5751 5749 5749 5747 5746 5744 5743 5741 5739 5736 5734 5732 5729 5726 5723 5720 5716 5712
5763 5764 5764 5764 5763 5763 5762 5762 5761 5761 5760 5760 5759 5759 5758 5757 5757 5756 5756 5755 5754 5753 5752 5751 5750 5749 5748 5747 5746 5745 5743 5742 5740 5738 5736 5734 5731 5729 5727 5724 5721 5717 5713 5709
5758 5759 5759 5759 5758 5758 5758 5757 5757 5756 5756 5755 5755 5755 5754 5754 5753 5753 5752 5751 5750 5750 5749 5748 5747 5746 5745 5744 5743 5742 5740 5739 5737 5735 5733 5731 5729 5726 5724 5721 5718 5714 5710 5706
5752 5753 5753 5753 5753 5753 5752 5752 5751 5751 5751 5751 5750 5750 5750 5750 5749 5749 5748 5747 5747 5746 5745 5745 5744 5743 5742 5740 5739 5738 5737 5735 5734 5732 5730 5728 5726 5723 5721 5718 5714 5711 5707 5702
5746 5746 5747 5747 5747 5747 5747 5746 5746 5746 5746 5746 5745 5745 5745 5745 5744 5744 5743 5743 5742 5742 5741 5740 5740 5739 5738 5737 5736 5734 5733 5732 5730 5728 5727 5725 5722 5720 5717 5714 5711 5707 5703 5699
5739 5740 5740 5741 5741 5741 5741 5740 5740 5740 5740 5740 5740 5740 5740 5739 5739 5739 5739 5738 5738 5737 5736 5736 5735 5734 5734 5733 5732 5731 5729 5728 5726 5725 5723 5721 5718 5716 5714 5711 5707 5704 5700 5696
5731 5732 5733 5734 5734 5734 5734 5734 5734 5735 5735 5734 5734 5734 5734 5734 5734 5733 5733 5733 5732 5732 5731 5731 5730 5730 5729 5728 5727 5726 5725 5723 5722 5720 5718 5716 5714 5712 5709 5707 5703 5700 5696 5692
5723 5724 5725 5726 5727 5727 5727 5728 5728 5728 5728 5729 5729 5728 5728 5728 5728 5728 5727 5727 5726 5726 5726 5726 5725 5725 5724 5723 5723 5721 5720 5719 5717 5716 5714 5712 5710 5708 5705 5702 5699 5696 5692 5688
5715 5716 5717 5718 5719 5720 5720 5721 5721 5722 5722 5722 5722 5722 5722 5722 5722 5722 5721 5721 5721 5720 5720 5720 5720 5719 5719 5718 5717 5716 5715 5714 5712 5711 5709 5707 5705 5703 5701 5698 5695 5692 5688 5685
5707 5708 5709 5710 5711 5711 5712 5713 5714 5715 5715 5715 5716 5716 5716 5716 5715 5715 5715 5715 5714 5714 5714 5714 5714 5714 5713 5713 5712 5711 5710 5709 5707 5706 5704 5702 5700 5698 5696 5694 5691 5688 5685 5681